[[{"header":{"parameterUnit":"m.s-1","parameterCategory":1,"la1":30.2991,"la2":30.254,"lo1":-89.0895,"lo2":-89.0444,"dy":0.0017,"dx":0.0017,"nx":28,"ny":28,"refTime":"2025-05-21T03:00:00:Z","depth":0,"parameterNumber":2,"parameterNumberName":"U-component_of_WINDS"},"data":[0,0,0,0,0,0,0,0,0,0,0,0,0,0,0,0,0,0,0,0,0,0,0,0,0,0,0,0,0,0,0,0,0,0,0,0,0,0,0,0,0,0,0,0,0,0,0,0,0,0,0,0,0,0,0,0,0,0,4.0684,4.0685,0,4.0758,4.0759,4.076,4.0698,4.0695,4.0693,4.069,4.0767,4.0771,4.0775,0,0,0,0,0,0,0,0,0,0,0,0,0,4.0488,4.0492,4.0684,4.0685,4.0686,4.0758,4.0759,4.076,4.0698,4.0695,4.0692,4.0689,4.0765,4.077,4.0776,0,0,0,0,0,0,0,0,0,0,0,0,0,4.0569,4.0493,4.0684,4.0664,4.0663,4.0758,4.0759,4.076,4.0699,4.0695,4.0691,4.0687,4.0763,4.077,4.0777,4.0896,0,0,4.0797,4.08,0,0,0,0,0,0,0,0,4.0564,4.0576,4.0666,4.0665,4.0664,4.0715,4.0718,4.0806,4.07,4.0685,4.069,4.0686,4.0753,4.076,4.0782,4.0899,4.0903,4.0798,4.0802,4.0804,4.0806,0,0,0,0,0,0,0,4.0559,4.0573,4.0713,4.0667,4.0666,4.0651,4.0658,4.0734,4.074,4.0686,4.0682,4.0691,4.0751,4.0776,4.0784,4.0904,4.0797,4.0803,4.0807,4.081,4.112,4.1125,0,0,0,0,0,0,4.0555,4.0568,4.0711,4.0715,4.0604,4.0657,4.0665,4.0702,4.0739,4.0741,4.0695,4.0688,4.0767,4.0776,4.0786,4.0927,4.0804,4.0811,4.0815,4.1116,4.1121,4.1126,0,0,0,0,0,0,4.0551,4.0569,4.0708,4.0641,4.0657,4.0665,4.0707,4.0706,4.073,4.0745,4.0746,4.0719,4.0764,4.0777,4.0868,4.0929,4.0814,4.082,4.1111,4.1118,4.1124,4.121,0,0,0,0,0,0,4.0546,4.0568,4.0613,4.0642,4.0661,4.0789,4.0711,4.071,4.0742,4.0734,4.0768,4.077,4.0762,4.0859,4.0875,4.0936,4.0825,4.1106,4.1114,4.1122,4.1202,4.1218,4.1233,0,0,0,0,0,4.0539,4.0635,4.0616,4.0633,4.0718,4.0793,4.0804,4.0792,4.0747,4.0793,4.0802,4.0769,4.092,4.0869,4.0887,4.095,4.1102,4.1112,4.1121,4.1195,4.1215,4.1232,0,0,0,0,0,0,4.0613,4.0638,4.0617,4.0725,4.0757,4.0782,4.0839,4.0814,4.086,4.0851,4.0835,4.0843,4.094,4.0954,4.0897,4.1067,4.1004,4.1017,4.1053,4.1073,4.1088,4.1082,4.0831,0,0,0,0,0,4.0641,4.07,4.0719,4.0812,4.083,4.0832,4.0864,4.0853,4.0885,4.0898,4.0914,4.0948,4.1002,4.1038,4.109,4.1204,4.1209,4.1256,4.1272,4.1284,4.1296,4.1356,4.1376,4.1157,4.1157,4.1157,0,0,4.0701,4.0723,4.0761,4.0828,4.0851,4.0912,4.0844,4.0911,4.0956,4.0909,4.0996,4.1009,4.1045,4.1148,4.1194,4.1163,4.1358,4.1296,4.1306,4.1311,4.1368,4.1388,4.1407,4.1164,4.1163,4.1162,0,0,4.0841,4.0864,4.0943,4.0968,4.1004,4.1005,4.1024,4.1053,4.106,4.1147,4.1113,4.1166,4.1261,4.1287,4.1313,4.1462,4.1433,4.148,4.156,4.1619,4.1636,4.1651,4.1703,4.1722,4.1491,4.1491,4.1492,0,4.0911,4.1001,4.0987,4.1057,4.1087,4.1047,4.1127,4.1152,4.1203,4.1225,4.1189,4.1306,4.1328,4.1436,4.1472,4.1495,4.1516,4.1475,4.1635,4.165,4.1664,4.1713,4.1733,4.1497,4.1496,4.1496,4.1495,0,4.1084,4.1148,4.1207,4.1257,4.1294,4.1369,4.1366,4.1405,4.139,4.1395,4.1484,4.1508,4.1563,4.1588,4.1574,4.1694,4.1673,4.1637,4.1573,4.169,4.1736,4.1755,4.1504,4.1502,4.1501,4.15,0,0,4.1272,4.1313,4.1335,4.1357,4.1394,4.1442,4.1515,4.1568,4.1601,4.1638,4.1698,4.1779,4.1745,4.1775,4.1764,4.1815,4.193,4.1772,4.1773,4.18,4.2062,4.2088,4.211,4.1912,4.1915,4.1918,4.2058,0,4.1412,4.1538,4.1528,4.1647,4.1704,4.1667,4.173,4.1759,4.1765,4.1815,4.1821,4.1878,4.183,4.1847,4.1897,4.1906,4.1983,4.1896,4.1966,4.1969,4.1957,4.2135,4.2163,4.2294,4.2077,4.208,4.2082,0,4.1593,4.1635,4.176,4.1787,4.1811,4.1868,4.1915,4.1963,4.1995,4.1996,4.2029,4.2009,4.2082,4.2017,4.2116,4.2057,4.2086,4.2094,4.2099,4.2104,4.2032,4.2143,4.2336,4.2355,4.211,4.2108,4.2106,0,4.1715,4.1804,4.1889,4.191,4.1944,4.1985,4.2001,4.2029,4.2062,4.2103,4.2124,4.2174,4.2201,4.2239,4.2233,4.2187,4.2334,4.2269,4.2336,4.2336,4.2367,4.2365,4.2566,4.2388,4.2388,4.2388,4.2387,0,4.1872,4.195,4.1945,4.1997,4.2083,4.207,4.2155,4.2166,4.2192,4.2245,4.2217,4.2268,4.2257,4.2308,4.2304,4.2386,4.2399,4.2401,4.2398,4.2402,4.2402,4.242,4.241,4.2393,4.2392,4.2391,4.239,0,4.2023,4.2023,4.2114,4.2139,4.2147,4.2209,4.223,4.2279,4.2283,4.2351,4.2366,4.2372,4.2431,4.2429,4.2495,4.2492,4.2592,4.258,4.2581,4.2578,4.2644,4.2637,4.2862,4.289,4.2696,4.2698,4.2699,0,4.2122,4.2181,4.2212,4.2246,4.2265,4.232,4.2352,4.2342,4.2377,4.2418,4.2462,4.2518,4.2561,4.2656,4.2666,4.2716,4.2704,4.278,4.2712,4.2713,4.2703,4.2699,4.2704,4.2792,4.2795,4.2796,4.2798,0,4.2298,4.2295,4.2343,4.2392,4.2432,4.2469,4.2504,4.2533,4.2526,4.2567,4.2626,4.266,4.2727,4.2782,4.283,4.2846,4.2821,4.2819,4.2837,4.2841,4.2838,4.2839,4.2616,4.2814,4.2812,4.2811,4.281,4.281,4.2425,4.2475,4.2505,4.2559,4.2584,4.2616,4.2663,4.2673,4.2722,4.2775,4.2767,4.2832,4.2862,4.2924,4.2945,4.2996,4.2969,4.2995,4.3001,4.3008,4.3014,4.2832,4.3005,4.3004,4.3004,4.3003,4.3003,0,4.2598,4.2615,4.2666,4.2714,4.2757,4.273,4.2766,4.2803,4.2861,4.2892,4.2935,4.3002,4.3055,4.3069,4.312,4.3158,4.3148,4.3172,4.3168,4.3172,4.3036,4.3015,4.3179,4.3179,4.3179,4.3179,4.3179,4.3179,4.2693,4.2775,4.2776,4.287,4.2886,4.295,4.2973,4.3003,4.3026,4.3103,4.3146,4.3155,4.3179,4.3231,4.3278,4.3281,4.33,4.3329,4.3327,4.3199,4.3182,4.3165,4.3145,4.3334,4.3334,4.3458,4.3459,4.346]},{"header":{"parameterUnit":"m.s-1","parameterCategory":1,"la1":30.2991,"la2":30.254,"lo1":-89.0895,"lo2":-89.0444,"dy":0.0017,"dx":0.0017,"nx":28,"ny":28,"refTime":"2025-05-21T03:00:00:Z","depth":0,"parameterNumber":3,"parameterNumberName":"V-component_of_WINDS"},"data":[0,0,0,0,0,0,0,0,0,0,0,0,0,0,0,0,0,0,0,0,0,0,0,0,0,0,0,0,0,0,0,0,0,0,0,0,0,0,0,0,0,0,0,0,0,0,0,0,0,0,0,0,0,0,0,0,0,0,2.3227,2.3228,0,2.3344,2.3345,2.3346,2.3361,2.3359,2.3358,2.3357,2.3476,2.348,2.3484,0,0,0,0,0,0,0,0,0,0,0,0,0,2.3013,2.3017,2.3226,2.3228,2.3229,2.3344,2.3345,2.3347,2.3361,2.3359,2.3358,2.3357,2.3474,2.3479,2.3484,0,0,0,0,0,0,0,0,0,0,0,0,0,2.3115,2.3018,2.3226,2.325,2.3253,2.3343,2.3345,2.3347,2.3361,2.3359,2.3358,2.3356,2.3473,2.3479,2.3485,2.3559,0,0,2.3505,2.3507,0,0,0,0,0,0,0,0,2.3109,2.3123,2.3245,2.3249,2.3253,2.3336,2.3313,2.3418,2.3361,2.332,2.3357,2.3355,2.3431,2.344,2.3466,2.3564,2.3569,2.3505,2.3509,2.3512,2.3513,0,0,0,0,0,0,0,2.3102,2.3118,2.3273,2.3247,2.3251,2.3254,2.3267,2.3333,2.3383,2.3324,2.3325,2.3339,2.3432,2.346,2.3469,2.3571,2.3505,2.3511,2.3514,2.3517,2.3735,2.3737,0,0,0,0,0,0,2.3091,2.3112,2.3269,2.3276,2.3175,2.326,2.3274,2.3311,2.3383,2.3392,2.334,2.3339,2.345,2.3461,2.3473,2.3564,2.3512,2.3518,2.3521,2.3733,2.3736,2.3738,0,0,0,0,0,0,2.3086,2.3105,2.3264,2.3195,2.3215,2.3265,2.3307,2.3314,2.3342,2.3395,2.3404,2.3359,2.3449,2.3464,2.3537,2.3569,2.352,2.3526,2.3731,2.3734,2.3737,2.3747,0,0,0,0,0,0,2.308,2.3103,2.3132,2.3195,2.3219,2.3327,2.3308,2.3318,2.3353,2.3352,2.3416,2.3424,2.3449,2.3528,2.3544,2.3576,2.3531,2.3728,2.3732,2.3736,2.3744,2.375,2.3755,0,0,0,0,0,2.3073,2.313,2.3134,2.3153,2.3256,2.3329,2.3343,2.337,2.3355,2.3385,2.3419,2.3422,2.3562,2.3535,2.3553,2.3588,2.3727,2.3731,2.3736,2.3742,2.3749,2.3755,0,0,0,0,0,0,2.3069,2.3139,2.3144,2.3223,2.327,2.3331,2.3369,2.3377,2.3429,2.3426,2.3457,2.3471,2.3543,2.3573,2.3541,2.3663,2.3643,2.3651,2.3641,2.3649,2.3654,2.3646,2.3536,0,0,0,0,0,2.3078,2.3132,2.3189,2.3254,2.3277,2.3319,2.3352,2.3369,2.3419,2.3439,2.3478,2.3526,2.358,2.3616,2.3669,2.3748,2.3762,2.3781,2.3786,2.379,2.3797,2.3841,2.385,2.3753,2.3753,2.3753,0,0,2.3096,2.3141,2.3173,2.3255,2.3293,2.3348,2.3336,2.3394,2.3435,2.3447,2.3519,2.355,2.3605,2.3681,2.3717,2.3708,2.3827,2.3796,2.3799,2.3804,2.3847,2.3856,2.3864,2.3756,2.3755,2.3755,0,0,2.3158,2.3197,2.3255,2.3294,2.3352,2.3379,2.3393,2.3453,2.3474,2.3547,2.3557,2.3605,2.3699,2.3738,2.377,2.3845,2.385,2.3861,2.389,2.3932,2.394,2.3947,2.3974,2.3983,2.3868,2.3868,2.3868,0,2.3173,2.3256,2.3284,2.3342,2.3378,2.3391,2.345,2.3486,2.3559,2.3583,2.3572,2.3689,2.3727,2.3813,2.3831,2.3856,2.3873,2.3855,2.3936,2.3944,2.3951,2.3977,2.3987,2.3869,2.3869,2.3869,2.3868,0,2.3272,2.333,2.337,2.344,2.348,2.3538,2.3574,2.3611,2.3624,2.3652,2.3725,2.3771,2.3834,2.3855,2.3868,2.3943,2.3936,2.393,2.3911,2.3961,2.3986,2.3996,2.387,2.387,2.387,2.3869,0,0,2.3337,2.3421,2.3435,2.3467,2.3532,2.3576,2.3635,2.3697,2.3728,2.3776,2.3826,2.3905,2.39,2.3936,2.3954,2.399,2.4047,2.3981,2.3982,2.3992,2.4132,2.4137,2.4148,2.4051,2.4053,2.4054,2.4128,0,2.3406,2.3512,2.3538,2.3627,2.3681,2.3694,2.3744,2.3789,2.3817,2.3865,2.3895,2.3951,2.394,2.3962,2.3999,2.4033,2.4076,2.4027,2.4097,2.4099,2.4084,2.4161,2.4166,2.4233,2.4138,2.4139,2.4141,0,2.3502,2.3553,2.3649,2.3706,2.3729,2.3775,2.3833,2.388,2.393,2.3948,2.3988,2.4001,2.4062,2.4038,2.4122,2.4089,2.4118,2.4139,2.4142,2.4151,2.4124,2.4172,2.4255,2.4266,2.4156,2.4155,2.4154,0,2.3539,2.3633,2.3702,2.3728,2.3797,2.3829,2.3859,2.3908,2.3943,2.3994,2.4017,2.4073,2.4105,2.4148,2.4176,2.4156,2.4258,2.4237,2.4274,2.4273,2.4296,2.4294,2.4386,2.4313,2.4313,2.4313,2.4312,0,2.3615,2.3673,2.372,2.3762,2.3827,2.3856,2.3919,2.3949,2.3993,2.4041,2.4055,2.4099,2.4134,2.4183,2.4205,2.4271,2.4285,2.43,2.4306,2.43,2.4298,2.4321,2.4317,2.4315,2.4315,2.4314,2.4314,0,2.3669,2.3703,2.3779,2.3837,2.3853,2.3899,2.3949,2.399,2.4017,2.4078,2.4094,2.4137,2.4196,2.4228,2.4301,2.4316,2.439,2.4392,2.4373,2.4376,2.4411,2.4408,2.4522,2.4538,2.4454,2.4454,2.4455,0,2.3716,2.376,2.3824,2.3857,2.3888,2.3942,2.3978,2.4007,2.4044,2.4105,2.4139,2.4198,2.4248,2.4341,2.4378,2.4434,2.4438,2.4474,2.4447,2.4439,2.444,2.4437,2.4442,2.4479,2.448,2.4481,2.4481,0,2.3795,2.3809,2.3861,2.3919,2.3961,2.4008,2.4054,2.408,2.4117,2.4158,2.4218,2.4257,2.4331,2.439,2.4449,2.4479,2.4487,2.4489,2.4501,2.4496,2.4483,2.4491,2.4387,2.4487,2.4486,2.4486,2.4486,2.4485,2.3847,2.3888,2.3939,2.3996,2.4033,2.4076,2.4118,2.4151,2.4202,2.4265,2.4279,2.4343,2.4392,2.4471,2.4503,2.4553,2.4546,2.4563,2.4567,2.4571,2.4573,2.4474,2.4563,2.4563,2.4563,2.4563,2.4563,0,2.3928,2.3961,2.4013,2.4077,2.4122,2.4125,2.4176,2.4213,2.4269,2.4314,2.4362,2.4432,2.4488,2.453,2.4588,2.462,2.4624,2.4634,2.4632,2.4639,2.4575,2.456,2.4629,2.4629,2.4629,2.4629,2.4629,2.4629,2.3975,2.4044,2.4064,2.4151,2.4184,2.4247,2.4276,2.4315,2.4351,2.4428,2.4475,2.4502,2.4546,2.4607,2.4659,2.4669,2.469,2.47,2.4711,2.4651,2.4644,2.4637,2.4623,2.4704,2.4704,2.477,2.4771,2.4771]}]]